Location:  
MeteoStar


Sort by weather type Sort by elevation Sort by visibility Sort from west to east north Sort from north to south Alphabetically Sort from strongest wind speed Sort from lowest to highest pressure Sort from highest to lowest dew point temperature Sort coolest temperatures to warmest Sort warm temperatures to coolest
 Metric

Current Observations for United Kingdom sorted from warmest to coolest

Norwich Weather Centre03:50ZHeavy Rain63 5731007.1N 3 6345
Saint Helena Island04:00ZNot Avail.61 N/A41019.5SE 13 1427
Shoeburyness04:00ZClear61 58201006.5S 13 616
Weybourne04:00ZShowers61 5851006.7S 6 6168
Aultbea04:00ZNot Avail.61 52201009.5E 7 6136
Wattisham03:50ZRain61 5761006.0SE 5 61285
Prestwick Airport03:50ZClear61 5231006.1E 7 6165
Lydd Airport 03:50ZMostly Cloudy61 59131007.1SW 11 619
Southend-On-Sea 03:50ZLight Rain61 57131006.1S 12 6149
Saint Catherines Point04:00ZNot Avail.60 54121006.4WSW 13 6052
Donna Nook04:00ZNot Avail.60 5851006.4SSE 5 6026
Prestwick Rnas04:00ZNot Avail.60 53191005.4ENE 6 6085
Wainfleet04:00ZNot Avail.60 5871006.2SE 7 609
Langdon Bay04:00ZNot Avail.59 58161007.4S 12 59383
Bridlington Mrsc04:00ZNot Avail.59 5841006.5ESE 16 5949
Keswick04:00ZLight Rain59 5431005.4SE 5 59265
South Uist Range04:00ZNot Avail.59 55141007.7E 10 5932
Marham03:50ZMostly Cloudy59 57131006.1E 6 5975
Holbeach04:00ZLight Showers59 58121006ESE 9 599
Topcliffe Royal Air Force Base 03:50ZRain59 5941006.1ESE 8 5991
Leconfield03:50ZLight Rain59 592.751006.1ENE 2 5919
Linton-On-Ouse03:50ZMostly Cloudy59 5941006.1ESE 6 5952
Leeming03:50ZRain59 5741006.1ESE 4 59131
Coningsby Royal Air Force Base03:50ZLight Rain59 5741006.1ESE 5 5922
Mildenhall Royal Air Force Base03:48ZMostly Cloudy59 59121006ESE 9 5932
Manston04:00ZLight Rain59 56121007.4S 11 59180
Lakenheath Royal Air Force Base03:42ZLight Drizzle59 59301006ESE 7 5932
Boulmer03:50ZHaze59 5751008.1E 8 5975
Machrihanish04:00ZNot Avail.59 55131004.7E 12 5942
Tiree03:50ZClear59 54131006.1ENE 10 5939
Stornoway03:50ZClear59 55101010.1ESE 9 5929
Glasgow Airport03:50ZClear59 5431007.1ENE 13 5926
Newcastle 03:50ZPartly Cloudy59 57201007.1ESE 6 59265
Humberside03:50ZRain59 5741006.1ESE 5 59101
London City Airport03:50ZLight Rain59 5541006.1SW 5 5916
Gravesend-Broadness04:00ZNot Avail.58 57161006.4SSW 5 589
Mumbles04:00ZNot Avail.58 54251004.5S 16 Gusting to 27 58114
Loftus Samos04:00ZLight Showers58 5741006.9ESE 15 58190
Strathallan04:00ZNot Avail.58 5581009.2E 9 58114
Aviemore04:00ZNot Avail.58 51171010.5ESE 4 58721
Tulloch Bridge04:00ZNot Avail.58 52191010SE 6 58777
Herstmonceux04:00ZClear57 56101007S 2 57170
Thorney Island04:00ZNot Avail.57 53201006.5SW 7 5713
Isle Of Portland04:00ZLight Showers57 53121006.0SW 11 57173
Fylingdales04:00ZNot Avail.57 564ESE 13 57859
Redesdale04:00ZNot Avail.57 5581007.7E 10 57692
Warcop Range04:00ZLight Rain57 5481005.5ESE 14 57744
Carlisle04:00ZNot Avail.57 54121006.2N 5791
Dundrennan04:00ZClear57 5641004.5ENE 14 57374
Altnaharra04:00ZNot Avail.57 54121011.9N 9 57265
Cranwell03:50ZMostly Cloudy57 5741005.1SE 7 57219
Waddington03:50ZHeavy Rain57 572.51005.1SE 9 57223
Lossiemouth03:50ZPartly Cloudy57 54121012.1E 6 5742
Leuchars03:50ZNot Avail.57 5581009.1E 11 5739
Kinloss03:50ZCloudy57 54101011.1ENE 10 5722
Edinburgh Airport03:50ZCloudy57 5431008.1NE 7 57134
Inverness / Dalcross03:50ZNot Avail.57 5431011.1E 12 5729
Aberdeen / Dyce03:50ZMist57 5531012.1ESE 7 57213
Kirkwall Airport03:50ZMostly Cloudy57 5551014.1ESE 11 5768
West Freugh04:00ZDrizzle57 5781004.4ENE 7 5736
Leeds And Bradford03:50ZPartly Cloudy57 55141005.0ESE 9 57682
Walney Island04:00ZClear57 55141004.7ESE 6 5749
London / Heathrow Airport03:50ZMostly Cloudy57 55131006.1S 5 5778
Jersey Airport03:50ZPartly Cloudy57 54251008.1WSW 15 57275
Guernsey Airport03:50ZClear57 54251007.1SW 12 57334
Plymouth04:00ZNot Avail.57 52101005.2SW 12 57164
Bedford04:00ZLight Rain56 5561005.5SSE 5 56278
Nottingham Weather Centre04:00ZRain56 562.751005.7S 4 56383
Shap04:00ZNot Avail.56 53191005.9ESE 4 56816
Saint Bees Head04:00ZNot Avail.56 55251004.9SE 14 56406
Eskdalemuir04:00ZClear56 52101007.2E 7 56793
Charterhall04:00ZMist56 5571008.4ENE 7 56367
Inverbervie04:00ZMist56 551.751011.2E 16 56439
Aboyne04:00ZNot Avail.56 54101011.5E 6 56459
Sule Skerry04:00ZNot Avail.56 N/A71012.2ESE 22 Gusting to 25 52
Tain Range04:00ZNot Avail.56 5591011.5E 12 5613
Shoreham Airport04:00ZNot Avail.56 55251006.7NNW 2 566
Ballypatrick Forest04:00ZNot Avail.55 54301004.5SE 13 55511
Portglenone04:00ZNot Avail.55 53151003.7E 4 55209
Kenley04:00ZClear55 55161006.7SW 7 55557
Milford Haven04:00ZNot Avail.55 50251002.7S 7 55144
Aberdaron04:00ZNot Avail.55 51301003.7SSE 12 55311
Bingley04:00ZNot Avail.55 5471005.5ESE 5 55859
Spadeadam04:00ZRain/Drizzle55 5361006.7E 10 55935
Drumalbin04:00ZNot Avail.55 52191007ENE 15 55803
Loch Glascanoch04:00ZNot Avail.55 52131010.9ESE 8 55869
Fair Isle04:00ZNot Avail.55 5471015.7ESE 9 55187
Northolt03:50ZClear55 55151006.1S 3 55124
Stansted Airport03:50ZLight Rain55 5541006.0W 6 55347
Benbecula03:50ZClear55 5231008.1ENE 6 5519
Wick03:50ZMist55 552.51013.1ESE 12 55127
Sumburgh Cape 03:50ZClear55 5451016.1ESE 8 5516
Spadeadam03:50ZLight Rain55 5461006.0E 10 551066
East Midlands03:50ZLight Rain55 55201005.1S 4 55308
London / Gatwick Airport03:50ZFog55 5541006.1SSW 2 55203
Luton Airport 03:50ZLight Rain55 5551006.0SW 3 55524
Liverpool Airport 03:50ZNot Avail.55 54191004.1SE 5 5585
Cardiff-Wales Airport03:50ZPartly Cloudy55 52191005.1SSW 7 55219
St Athan Royal Air Force Base03:50ZClear55 52141004.1SSW 5 55164
Crosby04:00ZNot Avail.54 5381004.5ESE 3 5426
Lerwick04:00ZPartly Cloudy54 53121016.5E 7 52269
Brize Norton03:50ZFog54 5231005.1CALM54288
Scatsa / Shetland Island03:50ZClear54 5231017.1ESE 10 5172
Pembrey Sands03:50ZPartly Cloudy54 52121003.1SE 4 539
Isle Of Man / Ronaldsway Airport03:50ZClear54 52201004.1ENE 6 5255
Blackpool Airport04:00ZNot Avail.54 5413ESE 6 5232
Bournemouth Airport04:00ZFog54 53121006.2S 4 5336
Scilly; Saint MaryS04:00ZClear54 51171004.4SW 13 Gusting to 26 50101
Culdrose03:50ZMostly Cloudy54 50141004.1SW 4 53255
Manchester Airport03:50ZPartly Cloudy54 520.121005.1N 2 54226
Belfast / Aldergrove Airport03:50ZPartly Cloudy54 5241004.1N 3 54265
Lough Fea04:00ZNot Avail.53 51181004.4ESE 3 53738
High Wicombe Hqstc04:00ZClear53 5371006.2SW 3 53669
Church Lawford04:00ZMist53 5351005.7SSW 2 53351
Pershore04:00ZFog53 53181006.0SSE 2 53104
Farnborough04:00ZNot Avail.53 530.121006.5S 3 53213
Chivenor04:00ZNot Avail.53 51201004.5E 7 5126
Little Rissington04:00ZNot Avail.52 51101005.4SW 6 50705
Trawscoed04:00ZNot Avail.52 50201003.7SSE 4 51206
Middle Wallop03:50ZMostly Cloudy52 500.061006.1SSE 4 51298
Odiham03:50ZClear52 5281006.1SSW 5 51403
Fairford Royal Air Force Base03:35ZLight Drizzle52 500.51005.7CALM52285
Valley03:50ZClear52 48121003.1E 9 493
Shawbury03:50ZMostly Cloudy52 5271004.1ENE 2 52249
Bristol / Lulsgate 03:50ZClear52 50191005.2SW 6 50620
Glenanne04:00ZMist51 5141003.7NE 3 51528
Castlederg04:00ZNot Avail.51 50191004.5SW 2 51167
Cardinham04:00ZNot Avail.51 49141004.7ESE 5 49656
Camborne04:00ZCloudy51 49121004.5SSW 5 49285
Larkhill04:00ZNot Avail.51 510.51006.2SSW 3 51433
Glen Ogle04:00ZNot Avail.51 518ESE 19 Gusting to 30 451850
Baltasound04:00ZNot Avail.51 51101017.4ESE 5 4949
Aberporth04:00ZNot Avail.51 49301002.9SSE 11 47436
Sennybridge04:00ZClear50 49201004.7SSE 7 471007
Lake Vyrnwy04:00ZNot Avail.50 502.751004.5SSE 5 481181
Rhyl04:00ZNot Avail.50 48301004.5SSE 3 50252
Great Dun Fell04:00ZNot Avail.50 508ESE 19 Gusting to 30 442778
Benson03:50ZClear50 500.121006.1S 2 50206
Exeter Airport04:20ZClear50 4841005.1N 3 5098
Boscombe Down03:50ZFog50 500.061006.1SSE 2 50406
Lyneham04:00ZNot Avail.50 50201005.7S 3 50475
Birmingham / Airport03:50ZFog50 500.121005.1S 3 50324
Dunkeswell Aerodrome04:00ZNot Avail.48 4781006S 6 45826
Capel Curig04:00ZNot Avail.48 48201004.7ENE 4 47708
Yeovilton03:50ZClear48 48191005.1S 4 4775
Liscombe04:00ZNot Avail.47 N/A2.251005.5SE 2 1141
Shobdon04:00ZNot Avail.47 471.251005.2SW 2 47324
Cairnwell04:00ZNot Avail.46 4617ESE 27 Gusting to 40 373061
Aonach Mor04:00ZNot Avail.46 4620S 13 Gusting to 29 403707
Cairngorm04:00ZNot Avail.43 N/A17SE 43 Gusting to 56 4084

Atlantic
Tropical Watch